| time (UTC) | temp F | wind direction | speed MPH | gust MPH | rain 1hr in | rain 24hr in | rain mn in | humidity % | barometer mb |
| 20260901223056 | 89 | 232 | 7.0 | 23.0 | 0.00 | 0.00 | 0.00 | 56 | 1015.1 |
| 20260901221559 | 89 | 158 | 10.0 | 24.0 | 0.00 | 0.00 | 0.00 | 55 | 1015.0 |
| 20260901214602 | 91 | 147 | 7.0 | 14.0 | 0.00 | 0.00 | 0.00 | 55 | 1015.1 |
| 20260901213102 | 91 | 236 | 5.0 | 16.0 | 0.00 | 0.00 | 0.00 | 55 | 1015.0 |
| 20260901211550 | 92 | 164 | 4.0 | 10.0 | 0.00 | 0.00 | 0.00 | 55 | 1014.7 |
| 20260901210109 | 92 | 156 | 5.0 | 14.0 | 0.00 | 0.00 | 0.00 | 53 | 1014.7 |
| 20260901204555 | 92 | 209 | 8.0 | 16.0 | 0.00 | 0.00 | 0.00 | 53 | 1014.8 |
| 20260901203052 | 92 | 163 | 6.0 | 14.0 | 0.00 | 0.00 | 0.00 | 54 | 1014.8 |
| 20260901201548 | 92 | 103 | 10.0 | 20.0 | 0.00 | 0.00 | 0.00 | 54 | 1014.7 |
| 20260901200111 | 92 | 187 | 12.0 | 19.0 | 0.00 | 0.00 | 0.00 | 54 | 1014.8 |
| 20260901194558 | 92 | 185 | 9.0 | 19.0 | 0.00 | 0.00 | 0.00 | 53 | 1014.8 |
| 20260901193054 | 93 | 180 | 9.0 | 18.0 | 0.00 | 0.00 | 0.00 | 51 | 1015.0 |
| 20260901191553 | 91 | 140 | 9.0 | 23.0 | 0.00 | 0.00 | 0.00 | 54 | 1015.4 |
| 20260901190053 | 91 | 225 | 11.0 | 21.0 | 0.00 | 0.00 | 0.00 | 55 | 1015.6 |
| 20260901184605 | 92 | 119 | 10.0 | 18.0 | 0.00 | 0.00 | 0.00 | 55 | 1015.8 |
| 20260901183104 | 93 | 175 | 7.0 | 20.0 | 0.00 | 0.00 | 0.00 | 53 | 1015.8 |
| 20260901181551 | 92 | 182 | 11.0 | 26.0 | 0.00 | 0.00 | 0.00 | 54 | 1015.7 |
| 20260901180104 | 93 | 140 | 6.0 | 15.0 | 0.00 | 0.00 | 0.00 | 51 | 1016.1 |
| 20260901174556 | 91 | 217 | 9.0 | 25.0 | 0.00 | 0.00 | 0.00 | 55 | 1016.0 |
| 20260901173058 | 91 | 145 | 14.0 | 22.0 | 0.00 | 0.00 | 0.00 | 55 | 1016.0 |
| 20260901171559 | 91 | 217 | 6.0 | 21.0 | 0.00 | 0.00 | 0.00 | 54 | 1015.8 |
| 20260901170051 | 91 | 192 | 8.0 | 18.0 | 0.00 | 0.00 | 0.00 | 57 | 1016.1 |
| 20260901164559 | 91 | 259 | 5.0 | 11.0 | 0.00 | 0.00 | 0.00 | 60 | 1016.1 |
| 20260901163059 | 90 | 150 | 6.0 | 12.0 | 0.00 | 0.00 | 0.00 | 59 | 1016.3 |
| 20260901161559 | 90 | 225 | 7.0 | 18.0 | 0.00 | 0.00 | 0.00 | 59 | 1016.5 |
| 20260901160054 | 88 | 190 | 4.0 | 10.0 | 0.00 | 0.00 | 0.00 | 65 | 1016.4 |
| 20260901154612 | 87 | 246 | 3.0 | 8.0 | 0.00 | 0.00 | 0.00 | 66 | 1016.7 |
| 20260901153107 | 86 | 217 | 7.0 | 15.0 | 0.00 | 0.00 | 0.00 | 65 | 1016.9 |
| 20260901151555 | 86 | 128 | 5.0 | 18.0 | 0.00 | 0.00 | 0.00 | 65 | 1017.1 |
| 20260901144548 | 85 | 180 | 5.0 | 12.0 | 0.00 | 0.00 | 0.00 | 68 | 1017.0 |
| 20260901143100 | 84 | 124 | 4.0 | 12.0 | 0.00 | 0.00 | 0.00 | 70 | 1017.1 |
| 20260901141605 | 84 | 230 | 8.0 | 17.0 | 0.00 | 0.00 | 0.00 | 68 | 1017.2 |
| 20260901140100 | 84 | 281 | 4.0 | 15.0 | 0.00 | 0.00 | 0.00 | 69 | 1017.2 |
| 20260901134551 | 82 | 230 | 4.0 | 13.0 | 0.00 | 0.00 | 0.00 | 74 | 1017.4 |
| 20260901133101 | 78 | 0 | 1.0 | 3.0 | 0.00 | 0.00 | 0.00 | 83 | 1017.6 |
| 20260901131559 | 75 | 0 | 2.0 | 4.0 | 0.00 | 0.00 | 0.00 | 86 | 1017.7 |
| 20260901130105 | 75 | 58 | 1.0 | 4.0 | 0.00 | 0.00 | 0.00 | 87 | 1017.6 |
| 20260901124600 | 74 | 36 | 1.0 | 2.0 | 0.00 | 0.00 | 0.00 | 89 | 1017.8 |
| 20260901123101 | 72 | 34 | 1.0 | 4.0 | 0.00 | 0.00 | 0.00 | 91 | 1018.0 |
| 20260901121612 | 72 | 9 | 1.0 | 3.0 | 0.00 | 0.00 | 0.00 | 92 | 1018.1 |
| 20260901120110 | 71 | 0 | 0.0 | 0.0 | 0.00 | 0.00 | 0.00 | 93 | 1018.0 |
| 20260901114553 | 71 | 0 | 0.0 | 0.0 | 0.00 | 0.00 | 0.00 | 93 | 1017.9 |
| 20260901113103 | 70 | 0 | 0.0 | 0.0 | 0.00 | 0.00 | 0.00 | 93 | 1017.8 |
| 20260901111606 | 70 | 0 | 0.0 | 0.0 | 0.00 | 0.00 | 0.00 | 93 | 1017.8 |
| 20260901110058 | 70 | 0 | 0.0 | 0.0 | 0.00 | 0.00 | 0.00 | 93 | 1017.6 |
| 20260901104552 | 70 | 0 | 0.0 | 0.0 | 0.00 | 0.00 | 0.00 | 93 | 1017.5 |
| 20260901103100 | 70 | 0 | 0.0 | 3.0 | 0.00 | 0.00 | 0.00 | 92 | 1017.4 |
| 20260901101558 | 71 | 0 | 0.0 | 1.0 | 0.00 | 0.00 | 0.00 | 92 | 1017.3 |
| 20260901100103 | 71 | 0 | 0.0 | 2.0 | 0.00 | 0.00 | 0.00 | 92 | 1017.3 |
| 20260901094604 | 71 | 0 | 0.0 | 3.0 | 0.00 | 0.00 | 0.00 | 92 | 1017.3 |
| 20260901093057 | 71 | 57 | 1.0 | 3.0 | 0.00 | 0.00 | 0.00 | 92 | 1017.4 |
| 20260901091620 | 71 | 0 | 0.0 | 2.0 | 0.00 | 0.00 | 0.00 | 92 | 1017.4 |
| 20260901090059 | 71 | 0 | 0.0 | 1.0 | 0.00 | 0.00 | 0.00 | 92 | 1017.2 |
| 20260901084605 | 71 | 194 | 1.0 | 3.0 | 0.00 | 0.00 | 0.00 | 92 | 1017.3 |
| 20260901083104 | 71 | 190 | 0.0 | 3.0 | 0.00 | 0.00 | 0.00 | 93 | 1017.5 |
| 20260901081551 | 71 | 196 | 1.0 | 3.0 | 0.00 | 0.00 | 0.00 | 93 | 1017.2 |
| 20260901080105 | 71 | 0 | 0.0 | 2.0 | 0.00 | 0.00 | 0.00 | 92 | 1017.5 |
| 20260901074558 | 71 | 186 | 0.0 | 1.0 | 0.00 | 0.00 | 0.00 | 92 | 1017.7 |
| 20260901073055 | 71 | 0 | 0.0 | 3.0 | 0.00 | 0.00 | 0.00 | 92 | 1017.7 |
| 20260901071550 | 71 | 166 | 0.0 | 3.0 | 0.00 | 0.00 | 0.00 | 92 | 1017.7 |
| 20260901070055 | 71 | 146 | 1.0 | 3.0 | 0.00 | 0.00 | 0.00 | 92 | 1017.6 |
| 20260901064552 | 71 | 221 | 1.0 | 3.0 | 0.00 | 0.00 | 0.00 | 92 | 1017.6 |
| 20260901063055 | 72 | 220 | 1.0 | 3.0 | 0.00 | 0.00 | 0.00 | 92 | 1017.8 |
| 20260901061558 | 72 | 0 | 0.0 | 1.0 | 0.00 | 0.00 | 0.00 | 92 | 1018.1 |
| 20260901060057 | 72 | 0 | 0.0 | 2.0 | 0.00 | 0.00 | 0.00 | 92 | 1018.2 |
| 20260901054601 | 72 | 0 | 0.0 | 3.0 | 0.00 | 0.00 | 0.00 | 91 | 1018.3 |
| 20260901053057 | 72 | 36 | 1.0 | 4.0 | 0.00 | 0.00 | 0.00 | 91 | 1018.4 |
| 20260901051557 | 72 | 40 | 2.0 | 3.0 | 0.00 | 0.00 | 0.00 | 91 | 1018.4 |
| 20260901050052 | 72 | 0 | 0.0 | 2.0 | 0.00 | 0.00 | 0.00 | 90 | 1018.3 |
| 20260901044603 | 73 | 165 | 0.0 | 2.0 | 0.00 | 0.00 | 0.00 | 90 | 1018.3 |
| 20260901043101 | 73 | 0 | 0.0 | 4.0 | 0.00 | 0.00 | 0.00 | 90 | 1018.1 |
| 20260901041550 | 73 | 195 | 2.0 | 4.0 | 0.00 | 0.00 | 0.00 | 90 | 1018.2 |
| 20260901040055 | 73 | 0 | 1.0 | 4.0 | 0.00 | 0.00 | 0.00 | 90 | 1018.3 |
| 20260901034600 | 73 | 199 | 0.0 | 2.0 | 0.00 | 0.00 | 0.00 | 90 | 1018.6 |
| 20260901033100 | 73 | 199 | 1.0 | 2.0 | 0.00 | 0.00 | 0.00 | 90 | 1018.7 |
| 20260901031554 | 73 | 199 | 0.0 | 3.0 | 0.00 | 0.00 | 0.00 | 90 | 1018.9 |
| 20260901024550 | 74 | 0 | 0.0 | 4.0 | 0.00 | 0.00 | 0.00 | 89 | 1019.1 |
| 20260901023102 | 74 | 180 | 0.0 | 2.0 | 0.00 | 0.00 | 0.00 | 89 | 1019.2 |
| 20260901021602 | 74 | 0 | 0.0 | 2.0 | 0.00 | 0.00 | 0.00 | 88 | 1019.1 |
| 20260901020052 | 74 | 175 | 0.0 | 2.0 | 0.00 | 0.00 | 0.00 | 88 | 1019.1 |
| 20260901014601 | 75 | 188 | 0.0 | 2.0 | 0.00 | 0.00 | 0.00 | 87 | 1018.8 |
| 20260901013116 | 75 | 204 | 0.0 | 3.0 | 0.00 | 0.00 | 0.00 | 87 | 1018.8 |
| 20260901011551 | 75 | 0 | 0.0 | 2.0 | 0.00 | 0.00 | 0.00 | 86 | 1018.5 |
| 20260901004555 | 77 | 0 | 0.0 | 1.0 | 0.00 | 0.00 | 0.00 | 83 | 1018.1 |
| 20260901003045 | 77 | 0 | 0.0 | 2.0 | 0.00 | 0.00 | 0.00 | 82 | 1018.0 |
| 20260901001600 | 78 | 259 | 0.0 | 2.0 | 0.00 | 0.00 | 0.00 | 81 | 1017.8 |
| 20260831234634 | 80 | 0 | 0.0 | 0.0 | 0.00 | 0.00 | 0.00 | 74 | 1017.9 |
| 20260831233055 | 81 | 0 | 0.0 | 1.0 | 0.00 | 0.00 | 0.00 | 74 | 1017.9 |
| 20260831231558 | 82 | 0 | 0.0 | 1.0 | 0.00 | 0.00 | 0.00 | 72 | 1017.9 |
| 20260831230054 | 82 | 0 | 0.0 | 2.0 | 0.00 | 0.00 | 0.00 | 71 | 1018.0 |
| 20260831224551 | 83 | 0 | 0.0 | 2.0 | 0.00 | 0.00 | 0.00 | 69 | 1018.1 |